Вернуться в каталог

FENGYUN 1C DEB

АктивенSSO
NORAD 30346·DEBRIS·🇨🇳 China

Запущен May 10, 1999 с Taiyuan Satellite Launch Center

Loading…

Ближайшие Пролёты (ближайшие 24 часа)

TLE

СвежийSource: Space-Track

Эпоха: Sep 14, 2026, 06:04 UTC

1 30346U 99025ABH 26257.25342662  .00003383  00000-0  11474-2 0  9999
2 30346  98.8116   4.6722 0052556 289.9426  99.4000 14.36614476 13654

Отслеживайте FENGYUN 1C DEB в реальном времени с AllMySat

Download on the App Store